Temp_Advection
nan nan nan nan nan nan nan nan nan nan nan nan nan nan nan nan nan nan nan nan nan nan
nan -0 -0 -0 -0 -0 -0 -0 -0 -0 -0 -1 -1 -1 -1 -1 -0 -0 -0 0 0 nan
nan -0 -0 0 0 0 0 0 0 0 -0 -0 -0 -0 -0 -0 -1 -1 -1 -1 -1 nan
nan 0 -0 -0 0 0 0 0 0 0 0 -0 -0 -0 -0 -0 -0 -0 -1 -1 -1 nan
nan 0 -0 -0 -0 -0 -0 -0 -0 -0 -0 -0 -0 -0 -0 -0 -0 -0 -0 -1 -1 nan
nan 0 0 -0 -0 -0 -0 -0 -0 -0 -0 -0 -0 -0 -0 -0 -0 -0 -0 -1 -1 nan
nan 0 0 0 0 0 0 0 0 -0 -0 -0 -0 -0 -0 -0 -0 -0 -0 -0 -0 nan
nan 0 0 0 0 0 0 0 0 -0 -0 -0 -0 -0 -0 -0 -0 -0 -0 -0 -0 nan
nan 0 0 0 0 0 0 0 0 0 -0 -0 -0 -0 -0 -0 -0 -0 -0 -0 -0 nan
nan 0 0 0 0 0 0 0 0 0 0 0 -0 -1 -0 -0 -0 -0 -0 -0 -0 nan
nan 1 0 0 0 0 0 0 0 0 0 0 0 -0 -1 -0 -0 -0 -0 -0 0 nan
nan 1 0 0 0 0 0 0 0 0 0 0 0 0 -0 -0 -0 -0 -0 -0 -0 nan
nan 0 0 0 0 0 0 0 0 0 0 0 0 0 0 -0 -0 -0 -0 -0 -0 nan
nan nan nan nan nan nan nan nan nan nan nan nan nan nan nan nan nan nan nan nan nan nan
Wind_Speed
12 12 14 14 15 16 17 16 16 18 15 12 13 13 15 16 13 13 15 16 18 19
10 11 12 13 14 14 14 14 14 14 13 12 11 12 14 17 13 12 12 14 16 15
10 11 12 13 14 14 14 14 14 14 14 14 14 13 10 10 14 16 15 14 15 17
10 11 12 13 14 15 15 15 15 15 15 15 15 15 14 14 13 12 14 14 13 14
9 9 10 12 13 13 13 14 14 14 14 14 14 14 13 13 13 13 13 14 14 15
11 10 10 11 12 13 14 14 14 13 13 12 13 12 11 10 10 11 11 12 13 15
13 11 10 11 11 13 14 14 13 12 11 11 11 11 9 9 9 9 9 10 11 12
16 13 11 11 11 12 13 13 11 10 9 9 8 9 9 9 9 8 8 9 9 11
18 15 12 11 11 11 12 11 10 9 8 8 8 9 9 8 8 8 8 8 9 10
21 18 14 12 11 11 11 10 9 8 7 7 6 9 8 7 7 8 8 9 9 9
23 20 16 13 12 12 11 10 8 8 7 7 7 8 8 7 7 9 10 10 10 8
24 21 18 14 12 13 12 10 9 8 8 7 7 8 10 10 9 9 10 11 11 10
24 20 20 15 12 13 12 11 10 9 9 8 8 8 10 11 10 9 10 10 10 11
27 22 19 17 12 12 13 11 10 10 10 9 9 10 11 12 10 9 10 11 11 10
Wind_Direction
351 352 352 352 351 351 346 342 345 346 341 347 343 343 337 316 300 299 298 301 302 293
345 348 347 346 348 349 351 350 345 342 342 338 337 337 343 341 321 307 323 328 321 317
330 335 338 340 340 339 338 338 338 337 334 331 329 327 329 331 321 324 320 323 325 325
317 327 333 337 339 339 338 337 333 329 327 328 331 332 326 321 322 324 322 321 326 326
294 309 322 328 330 331 331 331 330 329 328 328 327 326 330 329 328 328 330 335 336 338
278 291 306 316 323 327 330 331 331 331 330 332 333 333 336 341 344 344 346 349 352 355
266 277 292 306 317 325 329 331 333 335 339 345 349 347 352 353 354 356 356 356 1 5
256 264 276 292 307 317 323 327 329 334 338 345 347 349 354 354 354 354 354 353 356 355
252 257 265 280 295 308 317 321 325 330 333 338 340 341 344 349 349 349 349 346 349 347
248 252 260 272 285 297 309 315 316 318 318 321 325 324 332 339 341 340 339 339 344 351
244 247 252 264 278 290 300 305 304 302 302 304 310 319 339 345 342 335 330 328 329 333
238 239 247 256 273 287 294 297 294 290 289 289 294 301 313 342 340 339 332 328 324 321
233 238 245 250 266 281 287 287 289 286 280 278 279 283 291 314 325 329 325 326 329 326
228 229 236 246 253 274 280 280 282 279 279 277 276 281 285 296 311 317 317 319 324 327
Height
1494 1491 1489 1486 1483 1480 1477 1474 1471 1467 1464 1462 1460 1459 1457 1455 1453 1452 1450 1447 1444 1442
1493 1490 1487 1485 1482 1479 1476 1473 1470 1467 1464 1461 1459 1457 1455 1453 1451 1449 1445 1442 1439 1436
1491 1489 1486 1483 1481 1478 1475 1472 1469 1466 1462 1460 1457 1455 1452 1450 1449 1445 1442 1439 1436 1433
1489 1487 1485 1482 1479 1477 1473 1470 1467 1464 1462 1459 1456 1453 1450 1448 1445 1442 1439 1437 1433 1430
1485 1484 1482 1479 1477 1474 1471 1468 1464 1461 1458 1456 1453 1450 1448 1445 1442 1440 1437 1434 1431 1428
1482 1480 1479 1477 1475 1472 1469 1466 1462 1459 1456 1453 1450 1448 1445 1443 1440 1438 1435 1433 1430 1427
1477 1477 1475 1474 1472 1470 1467 1464 1461 1458 1455 1452 1449 1446 1443 1441 1439 1436 1434 1431 1429 1426
1473 1472 1471 1470 1468 1466 1463 1461 1458 1456 1454 1451 1448 1446 1443 1441 1438 1436 1433 1430 1428 1425
1469 1468 1467 1466 1465 1463 1461 1458 1456 1454 1452 1450 1447 1444 1442 1440 1438 1436 1433 1430 1428 1425
1464 1464 1463 1462 1461 1459 1456 1455 1453 1451 1450 1449 1447 1444 1441 1438 1437 1435 1433 1430 1428 1425
1457 1458 1458 1458 1457 1456 1454 1451 1450 1449 1447 1446 1444 1442 1440 1438 1436 1434 1432 1430 1427 1425
1451 1452 1453 1453 1453 1452 1451 1449 1447 1446 1445 1443 1443 1441 1439 1438 1435 1433 1432 1429 1426 1424
1445 1447 1448 1448 1448 1448 1447 1445 1444 1443 1441 1440 1440 1439 1438 1436 1434 1433 1431 1429 1424 1422
1438 1440 1443 1443 1442 1443 1443 1441 1440 1440 1439 1438 1437 1436 1436 1434 1432 1431 1429 1428 1424 1420